RH
88 92 95 94 96 93 88 92 92 82 82 86 88 89 87 90 93 90 91 83 59 46 45 37 31 31 27 24 25 25 24 23 23 22 25 31 33 36 39 38 38 37 36 35 27 25 30 23 15 17 16 15 15 11 10 10 8 11 14 13 15 17 18 21 18 12 9 8 7 8 7 7 8 9 8 7 8 11 12 13 15 14 16 13 14 47 81
91 92 93 91 91 88 87 92 90 85 89 89 90 94 87 83 88 90 88 73 56 52 43 27 25 28 26 25 24 22 18 20 22 22 26 33 36 42 44 38 35 33 28 27 27 27 28 25 22 18 15 19 18 10 9 11 10 11 14 13 15 19 19 20 20 17 17 18 14 11 12 11 9 9 8 6 7 10 10 12 13 13 18 15 16 50 84
93 91 89 86 84 85 87 88 85 87 89 87 91 94 87 84 89 86 73 59 62 65 46 32 33 29 28 33 30 25 20 18 20 24 28 30 33 45 48 38 34 33 26 24 28 27 24 30 34 24 22 31 23 9 10 12 8 11 17 15 13 18 19 20 23 21 24 32 27 18 17 15 11 9 8 7 8 8 11 14 14 17 21 13 19 60 91
93 89 85 81 83 88 87 84 86 90 87 86 92 91 89 93 92 82 69 59 62 59 44 51 59 41 30 35 34 27 23 21 22 26 33 33 32 40 44 39 37 35 31 28 29 29 24 26 30 31 39 39 22 12 12 9 11 21 27 22 13 17 26 33 36 27 19 24 22 14 15 16 14 11 8 9 8 8 12 13 13 19 19 12 31 75 100
90 85 82 81 85 91 90 86 88 90 86 87 92 89 91 95 84 72 67 60 56 49 40 47 53 41 33 34 32 26 24 33 40 40 42 43 39 40 41 41 41 39 36 34 33 34 33 29 28 39 52 41 23 20 13 9 26 34 24 16 14 22 38 47 47 36 21 16 15 12 14 15 14 13 10 10 9 10 13 13 16 20 15 22 53 82 92
85 81 82 84 88 93 93 90 90 91 88 88 92 90 89 90 80 66 60 57 51 42 35 33 35 40 38 31 32 34 34 45 59 57 53 50 45 46 46 41 38 37 34 33 36 35 33 33 30 34 43 37 29 28 16 14 32 30 15 14 17 25 40 47 44 38 28 21 17 14 12 11 13 14 14 14 13 15 15 14 19 23 22 38 66 76 78
82 83 87 89 91 93 92 90 92 92 88 87 93 94 86 83 81 71 62 63 56 39 29 29 34 41 40 33 38 50 54 57 63 65 69 66 49 43 49 44 34 31 26 31 46 43 31 35 37 32 38 41 38 32 22 20 25 20 15 17 19 30 45 45 37 36 34 27 21 19 16 14 15 16 17 18 16 14 20 25 29 34 40 52 62 68 76
84 88 92 91 90 92 91 90 92 91 88 88 90 91 87 84 84 80 71 64 53 44 38 35 36 39 42 42 44 52 62 67 68 68 73 75 58 42 45 45 36 30 24 30 48 45 35 43 45 39 43 49 45 37 28 25 22 17 18 24 30 40 49 46 38 39 42 34 27 28 25 21 21 21 22 27 25 23 34 46 49 51 60 64 66 78 90
88 90 92 90 91 93 91 91 91 89 91 93 89 87 89 86 82 87 90 73 51 45 43 37 38 39 40 48 53 58 65 68 72 70 59 57 58 49 45 49 44 34 27 33 42 39 38 45 47 49 52 47 41 34 24 21 22 18 22 33 36 35 44 51 44 44 51 42 32 35 36 36 42 45 44 44 42 43 50 54 53 56 68 72 69 81 94
92 92 91 92 94 92 90 92 92 88 90 92 89 88 91 89 81 80 89 81 59 50 42 34 43 49 45 53 65 67 62 55 62 69 56 48 53 50 49 57 60 54 48 47 46 40 37 36 41 55 56 41 33 27 17 17 22 22 27 34 32 32 47 53 40 43 56 46 38 46 46 49 60 66 66 60 52 53 59 59 57 56 60 61 56 66 82
93 91 90 92 94 92 91 93 93 89 90 93 92 90 89 91 90 83 82 77 58 47 42 36 49 64 63 64 70 66 55 48 53 62 61 57 53 48 52 64 71 69 60 49 44 41 35 27 29 39 41 33 30 24 16 15 17 22 27 28 27 35 47 44 34 44 55 45 45 51 44 48 64 69 65 57 48 53 62 65 65 62 58 57 58 66 76
94 91 90 93 94 93 91 93 93 89 90 94 95 93 88 88 92 89 88 82 57 39 43 50 59 70 67 60 60 56 50 48 47 49 56 59 54 50 54 62 67 65 52 39 34 33 31 29 30 35 36 34 28 23 24 25 21 20 22 25 28 31 35 34 32 41 50 49 51 54 51 60 71 66 56 49 45 52 61 62 60 60 63 66 69 73 73
94 92 92 91 91 92 91 93 95 91 91 95 95 93 90 90 93 88 86 90 71 47 50 55 49 50 53 50 49 47 41 39 40 43 49 55 55 55 53 52 52 50 43 37 32 30 33 36 36 38 38 32 28 30 34 35 32 26 20 22 28 27 26 32 37 43 53 55 52 59 73 79 73 62 55 53 53 53 60 70 69 60 60 66 69 73 73
94 94 93 88 86 90 91 91 92 92 93 95 94 94 92 91 95 89 80 85 75 50 45 52 48 47 52 50 47 44 38 34 36 40 44 49 54 54 48 44 41 39 39 40 34 32 37 42 43 45 41 35 39 44 40 36 39 39 30 22 22 23 24 32 43 46 46 51 60 73 84 81 75 70 61 55 57 52 54 77 83 64 57 65 70 75 77
93 95 95 91 85 85 88 88 89 91 92 92 93 96 94 93 96 89 76 76 71 50 42 53 62 61 52 43 41 42 37 34 35 38 41 46 50 48 43 40 38 38 41 42 37 36 41 46 51 53 48 41 44 46 40 35 36 37 36 28 20 22 25 29 40 42 35 43 62 69 70 69 69 68 57 52 58 53 49 70 84 70 58 63 70 74 77
93 95 97 95 90 87 87 87 87 89 91 93 95 95 92 93 95 87 73 70 68 55 42 45 56 58 47 39 37 36 33 31 34 44 49 47 44 42 40 38 37 41 47 45 42 43 47 53 56 55 51 48 47 48 45 41 38 36 36 32 26 29 32 29 32 38 37 41 46 48 58 66 63 59 55 52 53 50 46 59 75 72 61 59 65 71 72
94 95 95 95 94 94 92 88 85 88 91 95 98 97 93 91 92 86 77 72 66 51 38 42 56 58 47 41 38 32 28 27 29 40 48 44 39 38 37 35 37 43 48 50 52 52 53 60 62 55 50 46 46 52 50 48 53 51 40 35 39 46 46 33 25 31 37 39 41 51 66 69 60 55 52 45 45 51 53 57 66 69 62 57 62 67 67
94 94 93 93 94 95 95 90 85 88 94 97 97 96 93 91 89 87 82 75 64 48 34 36 50 50 41 40 40 33 28 25 24 27 32 32 30 29 30 32 33 34 36 40 47 48 47 53 55 51 52 49 45 50 53 52 57 59 53 52 55 53 45 33 28 31 33 35 44 60 71 66 57 53 47 41 48 57 57 58 62 62 60 58 59 61 62
94 91 92 93 93 93 94 93 90 91 94 96 95 92 87 86 88 88 82 73 66 57 42 34 40 41 34 34 37 31 25 23 23 22 24 28 26 21 21 25 25 24 25 26 30 33 34 38 38 36 46 55 49 46 51 54 53 55 59 59 53 46 38 32 32 31 30 39 53 63 70 68 57 49 46 48 56 61 60 60 59 57 58 58 56 57 59
89 88 92 95 96 96 95 95 95 95 92 91 94 91 84 84 89 89 85 81 77 70 51 35 36 37 31 33 40 37 32 31 29 24 23 26 24 20 22 25 22 20 22 23 25 26 27 29 28 24 31 43 45 44 48 51 47 46 51 50 48 48 40 33 39 39 32 43 59 64 67 68 57 50 53 57 59 60 60 59 56 54 56 55 55 58 60
88 91 94 95 95 97 98 98 98 97 90 86 91 90 84 85 90 90 89 88 83 70 48 33 34 35 30 32 36 35 34 36 37 36 32 26 23 25 27 25 22 21 22 23 25 26 25 25 26 27 28 30 34 40 43 46 46 45 46 46 50 55 45 36 50 55 40 44 63 66 61 59 54 52 56 56 54 54 55 56 58 57 57 57 60 62 59
93 94 93 95 96 97 98 98 98 95 87 82 87 86 80 80 85 90 96 94 82 67 52 43 43 42 34 31 30 29 31 33 34 40 41 30 22 24 27 25 24 26 25 24 25 24 25 25 24 28 29 25 27 34 35 36 43 45 45 45 49 55 52 47 60 68 58 59 73 73 63 57 54 54 54 53 52 51 50 54 59 59 59 60 63 62 57
94 94 93 95 97 97 98 97 93 88 81 77 83 86 81 79 82 88 94 89 74 64 57 50 45 39 31 28 27 26 29 32 33 39 45 39 26 21 24 26 26 25 25 31 33 27 24 24 22 22 26 25 27 33 31 32 39 43 44 46 48 50 49 51 62 70 69 71 74 69 64 62 55 52 53 51 51 51 51 54 58 58 58 59 59 59 59
95 96 95 96 96 98 99 94 84 78 72 66 74 87 86 82 84 85 82 73 63 53 44 36 34 30 26 25 26 26 27 30 32 37 45 47 36 25 25 30 31 28 27 34 36 28 24 26 25 24 32 35 30 28 30 34 39 40 41 46 48 46 43 46 55 59 62 73 77 70 65 63 56 54 55 52 51 52 53 54 56 55 55 57 57 59 61
97 98 97 97 97 95 90 81 70 69 65 56 65 85 86 75 78 85 77 65 60 52 38 30 29 27 24 24 25 26 27 27 28 32 37 39 35 30 34 41 43 38 31 30 29 24 21 25 26 25 35 42 35 29 31 37 37 36 40 44 45 41 37 40 53 61 64 72 76 68 61 58 54 53 55 54 53 54 53 53 54 55 56 59 60 60 61
99 100 95 89 85 78 73 69 62 61 59 49 55 81 88 72 74 85 76 60 60 55 39 31 30 25 22 25 25 25 27 27 27 29 29 29 30 33 36 38 38 34 28 26 27 24 19 21 24 25 32 39 38 34 35 38 37 37 42 44 39 35 36 43 60 77 83 80 75 68 66 65 60 56 56 55 54 54 54 54 54 55 57 59 58 58 59
99 95 82 74 70 64 61 59 55 55 53 43 47 76 89 75 72 81 74 60 60 52 34 28 31 26 22 25 26 26 28 28 27 27 26 25 28 31 30 30 29 27 25 24 23 21 22 26 32 36 37 37 36 35 35 37 38 40 46 46 38 36 43 50 60 74 82 79 71 65 69 74 70 62 58 56 54 54 56 55 54 55 55 55 56 57 56
92 79 66 63 63 57 51 48 48 50 45 37 49 78 89 75 69 76 77 70 68 58 38 28 30 29 27 26 25 25 29 30 28 28 27 26 27 29 29 29 28 27 27 26 23 22 26 33 37 39 39 38 38 38 37 37 37 39 45 47 43 43 46 47 48 55 61 62 59 56 61 68 68 61 58 57 54 54 56 55 54 54 53 52 53 54 53
74 57 52 54 53 49 42 39 44 43 35 40 64 82 81 72 70 74 76 75 75 66 43 26 27 32 32 28 25 25 28 31 30 29 28 28 29 29 29 30 31 29 27 26 26 27 32 36 38 40 44 47 45 38 34 36 42 48 49 48 47 47 47 43 43 46 51 54 55 54 58 63 63 58 57 56 54 53 54 53 51 50 50 49 49 49 49
54 43 45 47 45 41 35 35 40 36 32 52 74 70 56 56 63 69 69 70 74 68 45 27 30 35 30 27 26 24 26 29 31 31 30 29 29 28 28 29 29 28 27 26 27 29 32 36 40 42 44 44 41 33 32 40 52 56 52 47 46 48 48 46 44 46 52 55 54 53 56 59 58 55 54 53 51 51 51 50 47 46 46 45 45 45 45
43 38 38 38 37 34 31 34 36 30 38 65 77 60 45 49 61 68 69 68 73 69 45 25 27 31 27 26 27 24 24 28 30 30 31 30 29 28 28 28 28 27 28 28 29 29 31 34 39 40 38 38 38 35 35 44 56 58 52 48 50 50 50 49 47 48 53 55 53 54 57 56 54 55 56 53 50 48 47 46 45 44 44 43 44 45 44
38 35 32 31 30 29 31 34 31 28 45 70 72 58 51 54 59 63 63 66 72 65 40 25 28 29 27 28 26 23 24 27 27 28 30 31 31 30 29 30 30 29 28 28 30 33 34 37 39 39 38 38 37 35 37 46 58 61 55 52 54 54 53 54 54 53 54 54 55 61 65 59 54 54 55 51 47 45 44 44 44 44 44 44 45 46 46
34 32 28 25 25 29 34 33 28 31 46 56 55 50 47 45 45 46 52 66 72 53 28 24 29 28 28 31 27 24 26 26 24 27 31 30 30 31 31 31 31 30 29 30 32 34 33 33 36 38 38 36 36 42 50 56 58 57 53 53 59 60 56 55 55 54 53 51 51 58 64 60 53 49 47 44 43 42 42 42 43 44 45 45 45 46 45
33 27 22 22 28 34 33 28 30 44 53 50 49 50 46 40 38 38 47 66 66 39 19 23 28 25 28 32 29 24 25 25 23 25 29 29 27 27 29 29 29 31 33 31 30 32 32 30 31 35 36 34 38 52 65 63 56 53 54 57 61 61 59 57 56 54 52 49 46 48 51 50 47 46 45 44 44 43 43 43 44 43 43 42 42 41 41
28 20 20 26 30 31 29 31 43 56 54 45 44 46 40 35 33 30 38 57 56 33 17 19 23 23 26 30 29 26 23 24 24 23 24 26 24 23 25 27 30 34 33 28 26 30 32 32 32 32 32 35 42 54 62 61 57 56 59 61 62 62 63 63 60 54 50 47 46 46 45 44 46 47 47 46 46 44 43 42 39 37 36 35 34 34 34
21 18 22 27 28 30 36 44 50 51 43 37 39 38 30 28 30 29 36 52 55 41 24 17 18 23 26 26 27 25 22 22 24 22 21 24 23 21 22 26 31 33 28 25 28 32 32 32 32 32 34 41 48 52 53 55 59 60 61 62 61 59 60 60 55 50 49 48 47 47 45 44 46 48 48 47 44 41 39 36 32 30 31 31 30 30 32
18 18 21 27 33 37 40 40 39 38 34 29 28 27 24 27 36 42 46 49 46 38 28 19 18 22 25 24 24 23 21 21 20 19 19 22 22 20 21 25 29 29 26 27 32 32 30 30 33 37 44 50 53 51 50 52 57 59 59 59 57 56 57 55 49 48 50 52 51 49 47 46 47 46 43 41 37 33 32 30 28 30 32 32 30 32 34
18 20 26 36 41 38 35 35 34 31 27 24 26 29 28 28 31 35 35 31 27 24 23 19 18 21 23 24 23 22 21 20 18 17 19 20 19 19 20 22 24 24 26 31 32 28 29 34 38 44 52 56 56 55 53 52 53 54 54 55 55 53 54 52 49 50 56 58 57 52 48 47 45 41 35 32 30 29 29 29 29 32 33 32 31 32 32
31 35 37 42 40 35 35 37 32 26 24 26 29 29 24 22 23 24 22 20 19 19 19 18 18 21 23 23 22 21 21 21 19 17 17 20 21 20 19 20 21 21 25 29 27 25 32 39 40 42 50 56 59 59 55 53 53 53 51 51 51 49 49 49 47 47 50 52 51 47 42 40 37 33 29 28 27 27 28 29 29 29 29 29 29 29 28
48 46 39 37 39 40 39 34 29 28 28 25 23 20 19 20 22 23 22 21 21 21 20 19 18 22 24 22 18 18 21 24 21 16 16 20 22 19 18 19 20 21 24 26 23 22 30 38 40 42 45 49 56 59 55 52 53 51 49 48 48 45 45 45 44 41 41 40 38 35 32 30 30 30 30 29 28 27 28 28 27 27 27 28 29 28 26
64 60 52 50 52 50 41 32 30 31 26 19 19 23 24 22 21 20 21 24 24 22 20 19 18 20 22 20 17 17 20 23 20 15 15 18 20 19 19 19 19 22 25 24 20 19 24 31 38 42 41 41 48 54 54 51 51 50 48 47 46 44 43 42 40 38 35 32 31 30 30 30 30 30 29 28 26 26 26 26 26 26 27 28 29 29 27
80 76 70 67 60 51 41 32 28 26 23 22 25 27 25 23 24 23 22 23 23 21 21 22 22 20 20 20 18 16 17 20 19 15 14 16 17 17 17 17 19 24 26 23 19 19 23 31 41 45 41 37 41 47 50 51 50 48 47 46 45 44 43 39 35 32 29 27 28 29 29 28 28 27 27 27 27 27 27 28 28 27 26 27 29 29 27
86 84 80 71 53 39 34 28 22 23 27 29 30 32 31 27 24 24 22 21 20 21 23 25 23 18 18 20 18 15 17 20 17 14 14 15 15 16 18 20 22 23 23 21 20 19 21 30 41 45 41 37 37 41 44 46 46 45 44 43 41 40 38 33 30 29 28 27 28 28 27 27 28 28 28 29 30 30 30 30 29 28 28 27 28 28 27
80 75 68 52 33 25 28 28 25 28 35 34 31 35 37 31 25 23 23 21 21 22 23 22 19 17 18 19 17 15 17 17 14 12 14 15 15 17 19 21 22 21 21 21 21 19 21 28 35 39 40 39 37 36 37 39 41 41 41 38 35 33 31 29 28 28 28 27 27 27 28 28 28 28 29 30 31 32 31 30 29 30 29 27 26 26 25
64 53 44 38 32 30 34 35 31 31 36 34 28 28 30 28 25 23 20 19 20 21 20 18 17 17 18 18 15 14 14 13 12 14 15 15 17 21 20 18 18 20 20 19 18 20 26 32 36 39 42 41 38 35 34 36 37 37 36 34 33 30 30 30 30 28 27 27 26 27 28 28 27 28 29 30 30 31 31 31 31 31 28 26 25 25 24
51 38 32 38 42 37 32 35 36 32 30 28 24 21 21 21 20 19 18 18 20 21 19 18 17 17 16 16 15 13 12 11 13 15 15 16 21 23 20 18 19 19 19 17 16 19 25 30 33 37 40 41 39 37 36 34 34 33 32 32 31 29 30 32 31 28 26 27 27 27 28 27 27 28 29 29 29 30 32 32 32 30 29 28 28 27 25
45 32 25 34 42 35 28 32 33 27 24 22 19 18 17 17 17 19 19 18 19 19 18 18 17 16 15 15 15 13 12 12 15 16 16 18 21 20 19 20 20 18 16 15 15 17 22 26 28 33 38 40 40 40 38 36 34 33 32 32 30 29 31 33 30 27 26 27 28 28 29 29 29 29 29 29 30 31 32 33 32 31 31 31 31 29 28
46 34 27 35 40 34 29 29 25 19 20 21 18 16 17 18 19 21 20 18 20 21 21 20 19 16 14 15 15 14 12 13 16 17 16 18 21 22 22 21 19 15 13 12 13 16 21 24 27 31 35 37 38 39 40 39 38 36 34 33 31 31 33 33 30 27 27 28 28 29 30 31 31 30 29 29 30 31 32 33 33 32 33 33 31 31 31
50 38 29 30 31 27 24 24 21 19 20 20 19 20 20 19 19 19 19 19 21 22 20 19 18 16 14 15 16 15 14 14 17 18 17 17 20 21 20 20 18 15 12 12 14 17 21 23 26 30 34 35 35 35 36 37 38 38 37 36 34 33 34 33 29 27 27 27 28 28 28 28 29 30 31 31 32 32 32 33 34 34 34 33 32 32 32
49 38 31 28 27 24 22 21 21 22 21 19 19 21 20 17 17 19 20 20 20 21 20 18 16 15 15 15 17 18 16 15 15 17 18 18 17 16 16 17 17 14 12 12 15 18 21 23 26 30 33 33 33 33 32 33 35 35 34 33 34 34 34 32 29 27 27 27 27 28 28 27 28 29 31 32 33 33 34 35 35 35 35 34 33 33 33
41 36 32 27 24 23 21 20 22 23 20 18 20 21 18 17 19 20 19 19 21 23 23 20 17 17 18 19 19 20 18 15 14 17 18 16 14 14 15 15 13 12 12 14 16 18 21 23 26 29 32 32 32 31 30 30 32 32 30 29 29 29 29 29 28 28 28 28 29 29 29 29 29 29 30 31 32 33 34 35 36 35 34 35 34 34 33
36 34 32 26 21 20 19 19 21 20 17 15 18 19 17 18 19 19 19 21 22 22 21 18 16 19 21 20 18 18 18 17 18 20 18 16 14 14 13 13 12 12 14 15 16 17 20 23 25 29 31 31 31 30 30 29 29 29 28 28 27 26 26 28 28 27 28 29 30 30 30 31 31 30 30 30 30 30 32 34 35 34 34 34 33 33 33
Wind_Speed
8 3 2 0 1 3 5 5 6 8 8 7 6 6 5 4 2 3 11 21 21 11 7 8 8 8 9 10 11 11 10 9 8 6 5 6 6 6 7 8 8 6 6 7 9 11 10 14 14 11 14 14 11 19 21 19 20 16 11 13 11 6 6 9 11 11 13 16 19 18 17 16 15 14 14 14 13 13 11 9 9 8 9 10 8 7 4
1 3 2 2 3 4 5 5 6 7 7 6 7 5 4 4 2 2 9 19 17 9 7 9 9 9 10 11 11 10 8 8 8 6 5 5 6 6 8 8 7 6 8 8 7 11 10 11 10 8 13 9 7 19 24 19 17 14 10 11 9 5 7 9 9 10 10 11 14 14 13 13 12 13 15 16 17 18 14 10 8 7 9 10 6 5 5
3 3 3 3 5 5 5 6 7 7 5 5 6 5 3 3 1 3 7 13 12 8 7 6 6 9 11 10 9 9 8 5 5 5 6 7 6 7 8 9 8 8 10 10 7 12 11 8 7 6 8 6 5 16 22 18 17 15 11 11 10 7 8 8 9 11 12 10 10 12 12 11 10 14 18 19 20 20 15 9 7 7 10 12 7 5 8
4 4 4 4 4 4 6 7 6 6 4 4 7 7 4 3 1 2 5 7 7 8 8 6 6 7 9 9 9 11 9 4 2 4 6 8 9 9 10 10 11 10 11 12 7 11 11 8 7 5 4 5 7 13 17 18 16 12 7 8 10 7 5 4 3 7 11 12 13 14 14 12 13 17 21 20 20 20 16 11 8 8 9 10 7 13 15
5 5 6 5 5 5 7 7 5 5 4 4 7 7 4 3 1 3 5 6 6 7 8 8 7 6 7 6 7 10 8 2 0 3 5 7 9 10 10 12 12 10 9 10 7 8 13 11 10 11 8 7 7 10 17 15 8 9 8 9 9 6 4 4 1 1 5 11 14 17 18 17 17 17 18 18 18 18 16 12 7 5 8 5 10 20 20
5 6 7 7 6 7 8 8 5 5 4 5 6 5 3 3 2 2 3 3 5 8 9 10 9 7 8 5 3 6 6 4 3 4 6 9 10 9 9 12 15 14 11 10 7 7 14 12 11 12 10 8 7 10 18 13 6 8 13 11 7 5 5 6 6 4 2 5 10 15 18 18 16 15 16 16 15 13 12 10 3 3 4 6 12 18 20
7 8 9 9 7 6 8 8 5 5 5 6 7 5 3 3 3 3 4 3 4 7 8 9 9 9 8 5 4 5 7 9 8 5 5 8 11 12 10 11 14 15 14 10 6 8 10 10 9 11 9 8 8 10 14 12 8 12 14 10 7 4 3 7 10 8 4 4 8 11 14 15 15 14 13 11 12 12 8 4 5 5 7 13 16 18 17
9 10 11 10 7 5 7 8 6 5 6 6 7 5 3 3 3 4 4 4 5 5 5 7 8 7 7 6 5 7 9 9 7 6 8 9 10 12 13 13 12 13 15 13 9 8 8 12 8 9 9 8 7 8 10 12 13 14 12 9 6 3 3 7 10 8 6 6 8 8 8 10 11 10 7 6 9 11 8 7 10 12 13 16 20 19 14
10 12 12 9 6 6 7 7 6 6 6 6 6 3 3 5 7 6 5 5 4 4 5 6 6 6 7 6 5 6 8 8 6 6 9 10 9 10 12 11 10 10 12 10 5 4 7 15 9 5 8 8 8 9 10 13 15 14 11 8 5 4 5 7 8 8 6 8 11 12 13 13 12 11 8 4 6 9 10 7 6 10 15 17 16 13 9
11 12 11 9 7 8 7 7 7 7 7 7 4 1 4 6 8 6 5 5 4 4 6 7 6 4 4 4 5 6 6 5 6 5 5 5 6 6 7 8 7 5 4 5 2 4 5 14 12 8 9 9 9 10 13 16 14 11 10 9 7 6 5 6 8 8 8 10 13 15 16 12 10 9 5 3 5 10 12 10 9 8 11 10 6 8 11
13 12 10 8 9 9 8 8 8 8 8 7 5 3 3 4 6 4 3 5 5 5 5 6 5 1 3 6 7 7 4 2 4 4 1 1 4 3 3 7 4 5 7 5 1 2 6 9 10 11 10 8 6 8 13 18 14 9 10 9 9 11 8 6 6 6 8 13 13 12 12 9 5 4 2 3 5 11 13 13 13 11 9 8 10 14 17
13 12 10 8 9 9 8 8 9 9 8 7 6 5 4 4 5 4 3 5 5 5 4 4 5 3 5 8 7 4 3 2 1 1 4 3 4 3 1 3 2 7 5 3 3 8 12 11 10 12 11 10 9 8 8 11 10 9 10 9 9 12 10 5 4 5 6 10 11 9 8 4 3 2 0 3 8 14 17 15 13 12 13 16 18 19 17
12 12 10 9 10 10 9 8 9 9 8 7 8 8 7 6 5 4 3 5 5 3 1 2 6 6 4 3 3 3 4 3 4 4 6 6 5 4 4 3 6 7 4 4 2 7 10 11 10 9 9 11 13 12 8 6 5 8 11 10 9 10 9 5 4 4 5 6 7 7 4 3 3 5 6 7 10 12 13 13 12 10 11 15 18 18 17
12 12 11 10 11 11 9 9 10 9 8 8 8 8 8 6 5 4 3 4 5 4 3 1 2 2 1 2 4 5 4 4 6 7 7 7 7 8 6 5 6 4 3 4 2 5 6 7 6 4 5 7 10 11 8 6 4 3 5 9 10 9 8 7 5 4 6 5 4 5 5 5 5 6 7 7 6 5 6 8 7 7 9 13 17 18 17
13 12 11 11 11 11 10 9 10 9 8 8 8 8 8 6 6 6 4 5 6 4 2 3 4 6 5 1 6 5 4 4 5 8 9 9 9 8 6 3 3 2 3 4 5 6 5 4 4 4 4 6 6 7 8 7 5 4 2 4 9 9 7 8 7 5 5 5 5 5 5 4 4 8 8 5 2 3 8 9 6 5 9 13 15 17 17
13 12 12 11 11 11 10 9 9 8 9 9 8 8 7 5 7 9 7 5 5 3 4 6 5 8 7 2 4 3 3 5 6 7 8 9 10 9 5 1 2 4 6 6 5 5 5 4 4 2 3 4 4 4 5 5 5 5 3 3 6 6 5 7 8 7 6 5 5 5 3 1 3 9 9 6 2 3 6 5 4 7 10 13 15 17 16
13 13 13 12 11 11 10 8 7 7 9 10 9 8 8 5 7 9 6 4 4 4 5 6 3 4 5 3 2 1 2 3 5 6 6 7 10 10 8 6 4 1 1 2 3 3 3 4 2 2 3 4 4 4 4 4 5 6 6 5 4 2 4 7 8 7 7 7 5 3 3 3 5 9 9 7 4 4 6 5 5 11 12 13 15 17 15
13 14 15 14 12 10 10 8 7 7 8 10 10 9 7 6 7 8 6 4 4 2 5 6 3 5 5 4 3 2 2 1 3 5 6 7 8 8 8 7 6 7 7 5 4 5 5 5 5 5 4 3 4 5 4 3 4 4 5 5 4 3 4 6 7 7 8 8 5 4 4 4 6 8 7 7 5 5 5 2 7 14 15 13 14 16 15
14 15 16 14 12 10 9 9 8 7 8 10 10 8 7 7 7 7 6 4 3 3 5 7 6 8 7 5 4 3 2 2 2 3 5 6 4 5 7 4 2 4 5 5 5 5 4 4 5 5 5 3 3 5 6 3 2 2 2 3 4 4 4 5 6 6 7 6 6 6 4 3 4 6 6 4 3 3 3 6 11 15 16 15 15 16 15
15 16 15 13 11 10 9 9 9 8 7 8 9 9 9 6 5 5 4 3 4 5 3 3 5 8 8 7 5 5 4 4 5 3 3 5 2 3 5 5 3 3 4 4 4 3 3 4 4 4 5 5 3 4 6 4 4 3 2 2 3 2 1 4 4 1 4 7 6 4 4 3 6 8 6 1 1 4 9 11 14 16 15 15 15 14 13
15 15 14 12 11 11 10 10 9 8 7 7 8 10 9 4 4 4 3 3 5 4 1 3 5 8 9 10 9 9 8 7 8 7 3 3 2 1 1 4 2 1 2 2 1 1 1 2 3 2 3 3 3 5 6 6 5 5 6 3 4 6 4 2 4 5 1 5 5 3 5 7 7 5 4 4 5 9 12 12 13 14 14 13 12 12 12
15 14 13 13 12 11 11 10 9 8 8 7 8 9 8 6 8 7 4 5 7 7 7 10 10 7 5 7 9 10 10 9 9 7 5 2 1 1 1 3 4 4 3 2 1 2 1 1 2 3 3 2 3 5 6 5 5 4 4 3 4 7 6 5 7 7 6 6 7 7 8 8 6 5 8 11 12 13 13 14 13 12 11 11 11 13 14
14 13 13 13 12 11 10 10 9 8 7 8 9 9 10 10 10 9 6 6 8 10 13 14 10 5 1 6 9 9 9 10 9 9 8 5 2 1 2 3 3 2 2 4 3 1 2 2 2 3 4 3 3 5 5 2 4 5 4 4 5 6 5 5 7 9 10 11 9 9 10 9 10 10 11 12 13 13 13 14 13 12 12 11 12 14 16
14 14 13 13 12 12 10 9 8 7 7 9 9 10 11 11 9 8 6 6 6 6 5 3 2 4 5 8 10 10 10 11 9 8 7 6 4 2 3 4 4 2 3 4 4 3 2 2 1 2 4 2 1 4 5 4 5 6 4 5 5 3 1 4 7 7 5 6 8 9 10 11 11 12 12 13 14 13 12 12 13 13 14 14 15 17 17
15 14 14 13 12 12 11 9 7 7 8 11 11 10 10 9 7 6 6 5 5 4 1 4 6 7 7 8 10 11 11 10 8 7 6 6 6 5 4 4 4 4 4 3 2 1 2 2 0 3 5 2 3 1 4 4 4 5 4 4 4 2 3 5 8 5 5 8 10 10 11 12 11 11 11 12 14 14 13 14 15 16 16 17 18 18 16
15 15 14 13 13 12 11 8 8 9 10 12 13 11 10 8 6 5 6 6 5 4 0 5 6 8 9 10 11 12 11 8 6 6 4 4 5 5 3 2 2 3 3 2 2 2 1 2 1 3 5 2 2 2 4 4 4 5 4 4 4 3 4 5 9 9 8 9 11 11 12 12 11 11 12 12 12 14 16 16 17 18 18 18 18 18 17
15 14 14 14 13 11 10 9 10 12 12 14 16 12 10 9 7 6 6 6 4 2 1 4 5 7 10 13 12 12 11 9 6 5 4 3 4 4 3 2 2 2 2 2 2 2 2 4 4 4 4 4 3 3 4 5 5 6 6 5 3 3 6 8 9 8 7 8 12 12 11 10 10 11 13 13 14 16 17 17 18 18 18 18 18 19 20
15 14 14 14 12 11 11 12 13 13 14 16 16 12 11 11 8 7 7 6 5 3 2 3 3 3 6 10 13 13 12 11 8 6 6 6 6 5 3 3 2 2 2 3 1 1 4 5 4 4 3 2 2 4 5 5 5 6 7 6 5 3 6 5 4 5 7 12 14 11 9 11 11 12 13 14 14 16 17 18 18 18 18 19 19 20 19
16 14 13 13 12 11 12 13 13 15 16 17 15 11 10 9 8 7 6 5 5 6 3 2 4 3 4 7 10 12 13 12 11 10 9 8 7 6 5 4 3 3 3 3 3 4 5 5 4 4 3 3 1 4 5 5 5 6 6 4 5 7 6 3 2 7 12 14 13 10 12 14 14 14 15 14 15 16 17 18 18 18 20 21 20 19 19
16 14 12 12 12 12 13 13 13 15 16 15 11 7 4 3 4 5 6 5 4 6 4 2 5 4 4 6 8 9 11 12 12 11 10 9 7 6 5 5 4 3 2 3 4 4 4 4 4 4 4 5 2 3 4 4 6 6 4 4 6 7 7 5 7 11 13 12 11 13 15 16 14 14 14 15 17 18 17 17 20 21 23 24 21 20 21
15 13 12 12 12 13 13 12 13 15 15 11 7 4 1 3 3 1 5 5 5 6 4 2 4 3 3 4 6 7 9 10 9 9 9 8 7 7 7 6 4 4 4 5 5 4 4 4 3 3 3 5 4 1 4 5 6 6 6 6 7 6 6 7 10 13 14 14 15 17 17 15 15 14 13 15 19 20 18 19 23 24 24 24 23 21 22
14 12 12 12 13 13 13 12 13 15 13 8 6 4 2 1 1 5 7 5 5 7 3 2 3 2 3 3 4 6 6 5 5 6 6 6 6 6 7 6 5 5 5 4 4 4 4 4 4 4 3 4 4 1 5 5 6 7 8 8 7 7 8 10 12 13 14 15 16 17 17 15 15 16 16 17 20 22 21 22 25 25 24 24 23 22 22
13 12 12 13 12 12 12 12 14 14 13 11 9 6 4 4 5 6 5 3 5 8 4 1 2 2 2 2 3 4 5 2 3 5 5 5 4 4 5 5 5 4 4 3 3 3 2 3 4 4 4 3 3 4 6 5 7 9 9 9 9 9 10 11 12 13 13 13 13 14 15 16 17 20 21 21 21 23 24 24 24 24 22 21 20 20 21
13 13 12 12 12 12 12 14 13 11 10 8 3 3 3 6 7 4 3 2 6 7 3 0 2 3 2 2 2 3 5 3 2 5 4 4 2 2 4 4 3 3 3 3 3 3 3 3 4 4 4 4 4 5 5 6 9 10 9 10 10 10 11 12 12 12 12 12 12 14 17 20 21 21 21 21 20 22 23 23 22 21 19 17 17 18 20
12 12 10 10 11 12 13 14 11 8 6 3 3 2 4 6 4 4 3 2 4 3 1 1 2 3 2 3 3 3 4 3 3 4 3 3 3 2 3 3 3 3 2 1 2 4 4 2 1 2 4 4 4 4 5 9 11 10 10 11 11 11 12 13 12 12 12 13 15 17 19 21 21 19 18 18 18 19 20 20 20 19 17 15 16 18 19
10 9 8 9 11 12 11 9 5 4 3 1 3 4 5 3 1 2 3 4 5 3 0 1 2 1 1 2 4 1 2 0 3 3 2 3 3 2 2 3 4 4 2 1 3 5 3 2 1 2 4 3 4 5 7 10 11 10 10 11 11 11 12 13 14 15 16 17 18 19 19 20 19 17 16 17 17 17 18 18 18 18 16 15 16 16 17
7 6 7 8 9 9 6 2 1 2 5 5 4 4 4 2 2 3 4 6 6 4 3 2 0 2 1 2 4 1 3 1 3 2 1 3 2 2 2 3 4 2 2 4 5 4 3 2 1 4 6 4 5 7 8 9 10 10 11 11 11 11 12 14 16 18 19 19 19 18 18 18 17 16 16 16 16 17 17 16 16 16 16 15 15 14 15
4 4 5 6 6 5 2 2 2 7 8 6 4 3 4 4 4 4 3 3 3 3 3 2 1 2 1 2 3 1 1 0 2 2 2 2 2 1 1 2 1 1 2 5 3 2 3 4 4 5 7 7 7 8 8 8 9 10 10 11 11 11 13 15 18 20 19 17 16 16 17 17 17 16 16 16 16 16 16 16 17 17 17 16 16 16 17
2 3 4 5 4 2 2 3 7 9 7 4 4 3 3 3 3 3 2 1 1 2 2 1 2 2 1 2 4 2 2 1 2 3 3 1 1 1 1 2 1 2 3 5 2 2 2 4 4 5 6 7 8 8 8 9 10 10 10 11 12 14 15 15 17 18 17 15 15 16 16 16 17 16 14 14 15 15 16 17 18 18 18 18 17 18 17
1 2 4 3 2 4 6 7 8 7 4 4 4 2 2 2 2 1 2 3 2 1 1 1 2 2 2 1 4 4 1 3 2 2 4 3 1 1 1 2 1 1 3 4 2 1 2 4 5 5 6 7 8 9 9 9 10 10 11 11 13 17 19 18 18 19 18 16 17 18 18 17 18 16 14 14 14 14 14 16 17 17 18 18 17 17 16
5 4 3 4 7 9 9 7 5 4 4 3 2 1 2 2 1 1 3 4 3 2 0 1 3 4 1 1 2 4 2 2 3 2 4 3 1 1 2 3 0 1 3 4 2 2 3 4 4 5 6 7 9 10 9 10 10 10 11 13 15 18 20 19 18 19 18 16 16 17 19 21 20 18 17 17 16 15 15 16 17 18 19 18 17 16 16
7 6 6 8 11 9 7 5 3 3 2 2 2 2 2 2 2 3 4 2 1 2 2 1 1 3 2 2 2 3 2 1 3 1 2 3 1 1 2 2 1 1 4 3 2 2 3 4 4 6 7 8 11 11 10 10 11 11 12 14 16 18 19 17 16 17 19 18 17 18 20 21 20 19 19 19 18 17 17 17 17 18 19 18 17 16 16
5 6 6 7 6 5 4 4 3 2 1 2 2 2 2 3 3 4 3 2 1 2 3 2 1 2 2 1 1 3 3 0 2 1 2 2 0 1 1 1 1 3 3 2 3 3 4 3 4 7 8 8 10 11 12 12 12 12 14 16 18 19 19 18 17 18 20 20 19 20 20 20 19 19 19 18 18 17 17 17 18 18 18 17 17 17 17
4 4 4 3 3 3 2 2 2 1 2 3 3 3 4 5 4 4 4 4 3 3 3 4 4 4 3 1 1 2 2 2 1 1 2 2 1 0 1 2 3 2 2 2 2 3 3 3 5 9 9 9 9 11 13 13 13 13 14 16 18 19 19 19 19 18 18 19 20 20 19 19 19 19 18 18 18 18 17 17 17 17 16 16 17 17 17
5 4 4 3 1 1 1 1 2 2 3 4 4 5 5 5 6 5 4 3 3 4 5 5 4 4 4 2 1 1 2 2 1 1 1 1 1 2 2 3 2 1 2 2 3 3 3 5 7 9 11 11 10 12 13 13 14 14 15 16 17 18 18 18 17 16 16 18 20 19 18 18 19 18 18 18 18 17 17 17 16 16 16 16 16 17 17
4 3 3 3 2 2 2 3 3 4 4 4 5 6 6 6 6 4 3 3 3 4 5 4 4 4 4 3 1 1 1 2 3 1 1 0 2 3 2 1 1 1 1 2 3 3 5 7 8 9 12 13 12 12 13 13 13 14 14 15 16 17 18 18 17 16 17 19 20 19 18 18 18 17 18 18 17 17 17 16 16 16 16 15 15 16 17
3 3 4 3 2 3 4 4 4 5 4 4 6 6 5 3 2 2 2 3 4 4 4 4 3 4 4 2 1 1 1 2 3 1 1 1 2 2 0 1 1 1 1 2 2 3 6 8 9 10 12 13 13 13 13 12 13 14 14 14 15 17 18 18 17 17 19 20 20 19 18 17 17 17 17 17 16 16 16 16 16 15 15 14 15 16 15
3 3 4 4 3 4 5 5 5 6 5 5 5 5 3 2 2 3 3 2 2 4 5 4 3 3 3 3 2 2 3 3 3 2 1 1 2 2 1 1 1 1 1 2 2 4 6 8 9 11 13 13 14 14 13 13 14 15 15 14 15 17 18 18 17 18 20 21 19 18 18 17 16 17 17 16 16 16 16 16 16 15 14 14 15 15 14
3 3 3 3 3 4 5 6 6 6 6 5 4 4 3 4 5 4 4 3 3 4 5 4 3 4 4 2 1 2 3 3 2 2 1 2 2 2 2 2 2 3 3 1 2 5 6 8 10 13 14 13 13 13 13 13 14 15 15 15 17 18 19 19 19 20 21 20 18 18 19 18 17 16 16 16 16 16 16 16 15 14 14 14 14 14 14
4 4 4 4 4 5 6 7 7 6 7 7 6 4 5 6 5 4 4 4 4 5 4 3 3 3 3 3 3 3 3 2 2 3 3 3 3 2 3 3 3 3 2 2 3 5 7 8 10 12 13 14 13 13 14 14 14 14 16 18 19 20 20 20 20 21 21 19 18 18 18 18 17 16 16 16 15 15 15 15 15 14 14 14 14 14 15
4 4 5 6 6 5 6 7 7 7 7 7 6 5 6 6 5 5 5 5 5 5 5 5 4 3 3 3 3 2 2 2 2 3 4 3 2 3 4 4 3 2 4 4 4 5 7 9 9 10 12 13 13 13 14 15 16 16 18 19 20 20 20 21 21 21 20 19 18 19 18 17 16 16 16 15 15 15 14 14 14 13 13 13 13 14 15
5 5 5 6 7 6 5 6 7 7 7 6 6 6 7 6 5 5 5 5 5 6 6 5 4 4 4 4 3 2 2 2 3 3 3 3 2 3 3 2 2 3 4 4 4 5 6 8 9 11 12 13 14 14 15 16 17 18 20 20 20 21 21 21 21 21 20 19 18 18 17 16 16 16 16 16 16 16 14 13 13 14 14 13 13 13 14
Wind_Direction
295 235 209 213 3 316 307 299 302 311 309 304 303 289 261 239 225 165 173 173 173 187 206 198 209 225 225 227 234 233 228 237 236 220 237 255 247 258 260 256 264 253 249 262 217 186 180 184 184 183 183 183 181 180 183 188 183 182 194 183 171 190 200 191 193 189 186 185 185 197 209 202 195 208 219 212 204 208 215 215 201 206 224 219 196 164 130
287 126 87 355 327 317 316 305 306 310 306 312 315 295 268 254 239 148 178 184 189 210 214 198 208 219 222 228 234 236 237 240 242 241 255 256 252 268 267 259 264 247 246 262 224 202 198 167 159 187 178 168 196 184 178 184 184 180 193 181 163 185 201 192 191 181 179 188 185 187 205 213 201 199 211 215 207 205 217 225 209 212 222 215 204 163 137
99 70 27 338 329 330 317 305 309 309 303 315 307 283 279 280 271 108 169 188 199 226 235 231 233 222 220 228 235 238 234 229 251 266 261 258 263 270 265 266 273 262 265 277 229 203 206 164 154 208 170 137 215 189 174 184 188 176 185 184 169 189 198 187 197 191 178 183 188 182 190 206 204 195 201 212 212 204 208 216 201 205 219 213 199 141 127
60 15 354 336 334 336 323 313 308 300 303 319 302 285 286 285 248 122 162 189 212 239 250 264 267 239 222 220 230 239 228 196 227 268 264 265 260 257 267 275 277 266 259 268 236 180 185 191 179 173 141 148 195 187 179 189 181 151 152 185 177 188 199 172 225 224 192 185 189 186 185 195 204 200 196 204 211 203 201 216 209 197 218 220 167 133 134
22 5 2 352 343 339 333 326 307 290 300 320 304 287 271 269 238 165 168 188 212 229 236 238 241 247 240 220 219 232 227 180 48 239 242 260 253 250 260 257 260 268 248 247 251 173 169 191 180 157 162 178 173 185 192 186 150 125 162 197 190 183 190 159 94 295 206 193 188 184 187 194 200 201 196 199 209 208 203 205 202 209 225 208 138 136 141
17 10 10 359 346 338 333 331 316 297 299 304 299 283 244 252 270 227 211 214 211 209 216 222 226 239 239 222 214 225 213 201 229 231 233 253 250 240 245 242 243 255 241 226 245 197 168 176 183 168 168 169 158 186 192 175 135 166 182 192 194 181 179 172 149 106 109 182 185 187 193 194 192 195 198 200 205 211 209 197 194 284 230 154 139 141 140
16 11 3 351 346 334 327 333 328 309 308 296 286 281 264 267 282 267 260 262 233 214 213 212 213 227 232 224 222 221 218 219 220 225 238 252 246 229 230 244 238 234 229 215 231 225 172 153 178 181 162 155 163 181 181 168 172 188 183 181 182 161 158 174 159 134 117 159 178 190 195 191 184 183 189 201 204 202 204 173 106 93 113 124 131 128 123
14 10 360 353 356 340 326 332 334 322 317 290 265 262 277 296 314 310 287 265 246 229 222 211 206 214 219 225 226 217 229 235 219 223 238 237 236 224 225 246 246 228 219 206 212 233 171 137 161 178 150 148 178 185 173 168 182 189 182 175 172 148 168 176 155 134 135 158 165 164 154 148 150 151 149 174 190 176 148 105 101 105 106 113 120 116 109
11 6 1 360 360 344 333 337 341 333 320 294 261 248 297 293 289 301 303 283 254 219 210 208 207 208 202 214 237 224 229 238 224 238 248 236 229 221 221 243 254 236 218 193 203 253 152 142 154 166 154 169 197 200 176 167 181 188 172 162 175 176 173 172 158 144 142 157 161 147 124 111 105 99 93 114 145 132 116 103 108 124 126 124 122 122 127
8 2 360 360 354 348 347 348 347 337 323 306 283 332 358 308 284 283 284 286 277 228 207 198 203 213 184 189 243 251 239 226 217 230 246 240 239 226 229 263 263 213 148 94 3 310 138 143 151 160 178 190 192 195 184 172 177 180 164 163 176 167 164 181 174 157 151 158 154 142 135 129 113 96 62 34 103 108 98 78 61 93 133 140 131 131 138
7 2 2 0 353 353 358 356 348 340 335 329 319 340 360 317 301 300 277 273 262 230 212 197 198 189 120 167 220 254 252 215 231 237 161 199 244 214 242 284 263 138 92 60 268 203 127 130 141 150 175 191 176 174 175 172 175 176 166 174 178 166 169 191 176 155 155 157 153 158 168 163 131 115 326 328 101 103 93 80 64 63 84 90 95 117 132
6 4 7 3 352 354 359 357 350 341 336 332 315 301 302 300 297 295 284 284 266 233 207 185 187 175 162 183 209 237 214 167 266 344 97 139 212 202 333 301 151 114 68 26 153 141 125 120 119 124 141 157 149 127 131 153 171 182 180 182 183 173 169 168 153 147 151 153 161 182 189 161 103 135 318 42 91 93 86 81 73 73 89 98 106 120 131
6 7 7 357 351 355 357 353 349 343 337 331 314 300 308 318 306 290 289 290 278 265 263 193 173 160 168 205 214 200 186 145 110 104 104 118 144 128 86 70 100 94 34 346 132 135 123 113 103 97 107 125 128 117 104 107 138 177 188 185 184 184 174 147 117 136 152 166 177 174 146 99 117 141 120 109 121 116 93 76 67 76 101 113 116 122 123
6 8 2 353 350 352 352 348 345 343 338 331 317 305 310 316 307 303 306 298 299 310 318 302 134 123 233 214 162 156 164 140 114 108 105 106 110 108 96 65 62 68 351 332 79 123 117 108 102 96 110 124 123 123 130 128 105 121 179 180 181 190 179 145 132 172 177 155 117 112 126 136 148 159 150 137 142 144 109 89 77 84 104 119 123 124 122
5 6 359 354 349 344 343 341 339 343 345 336 320 305 304 305 295 292 298 303 301 301 323 356 356 321 303 122 122 132 141 132 111 98 96 100 102 100 93 52 3 4 360 11 57 82 79 91 109 121 151 156 138 129 141 146 123 87 75 177 179 185 187 161 151 180 184 142 116 135 153 157 166 177 177 157 106 95 108 108 105 107 120 131 132 129 129
1 0 357 354 347 341 340 336 333 339 345 342 331 311 302 302 291 287 292 301 294 298 6 24 359 308 306 45 106 150 140 116 106 100 100 106 113 117 122 137 328 359 17 28 46 58 63 83 104 123 158 158 137 129 142 146 128 115 120 158 156 162 196 189 170 171 171 167 176 170 143 66 141 158 166 174 192 171 145 135 137 140 142 143 140 136 137
355 353 352 351 348 342 339 335 328 332 340 344 338 317 303 305 305 299 298 298 285 300 5 31 20 298 318 24 78 112 97 103 112 115 121 125 128 137 154 165 174 222 276 66 60 67 100 108 133 160 141 139 138 129 140 146 129 133 153 151 126 131 216 201 187 182 174 174 178 142 75 62 117 141 157 164 165 197 211 211 162 148 149 149 145 142 140
351 349 349 348 345 339 337 333 325 326 338 343 336 314 296 302 312 303 294 296 292 309 22 23 343 301 327 333 298 317 38 75 104 115 129 132 130 138 146 153 172 194 199 178 151 170 171 155 167 164 125 129 156 141 138 146 120 124 152 153 150 179 200 187 183 182 178 173 154 101 80 97 123 139 151 145 150 198 216 171 131 143 148 146 144 141 138
348 346 345 345 342 337 334 330 329 331 337 344 345 326 303 313 327 312 294 304 313 319 2 3 322 304 321 318 286 302 360 23 42 106 132 119 113 135 133 132 185 185 182 182 166 167 170 151 156 156 141 158 175 133 126 121 90 112 148 154 158 171 170 164 171 184 179 157 119 105 100 99 136 141 130 134 180 190 127 104 123 138 142 141 141 137 135
345 344 345 345 341 339 334 329 332 334 332 341 348 325 301 304 336 320 296 309 309 294 314 343 315 324 357 22 18 8 10 9 6 10 102 100 99 197 154 145 181 169 159 178 167 162 183 163 150 151 147 149 148 121 113 92 65 50 21 49 69 32 215 158 125 124 175 151 132 132 125 136 170 158 132 88 274 120 115 120 128 132 135 137 136 133 133
345 346 347 344 338 336 333 329 330 329 326 340 346 323 306 322 360 332 281 273 286 276 34 25 342 344 10 25 20 14 16 15 9 360 12 76 74 297 127 113 108 106 138 161 140 132 177 142 128 121 116 120 146 153 139 124 100 48 12 32 59 12 334 154 80 2 278 152 125 87 96 125 163 163 113 90 101 119 128 129 127 129 134 134 131 129 132
346 346 343 340 337 333 329 326 326 323 322 338 341 321 310 328 339 328 287 258 264 260 279 302 302 301 341 17 19 18 16 9 5 358 347 360 70 5 19 77 62 36 8 350 82 136 140 135 136 134 125 123 143 147 146 152 143 101 33 16 49 38 41 82 72 44 45 79 93 89 89 101 110 94 96 107 112 121 128 126 125 130 131 129 130 130 130
340 340 339 335 332 330 327 322 321 320 320 333 336 320 307 311 318 317 298 271 264 260 264 272 273 263 324 25 23 21 20 14 9 9 3 352 355 41 56 48 43 50 32 1 347 23 125 148 151 128 127 120 121 140 150 156 138 123 80 47 62 72 73 79 92 99 84 72 86 102 97 96 100 98 105 114 116 120 124 123 125 127 125 127 131 131 131
333 335 335 331 328 327 323 315 314 318 319 323 323 310 300 300 303 303 293 277 271 270 256 252 351 24 32 28 20 19 20 15 8 8 7 358 349 24 76 45 10 24 69 39 345 334 51 71 31 102 109 76 68 151 144 117 117 122 109 94 96 108 132 101 117 140 126 86 95 107 105 107 108 106 110 115 115 117 121 122 125 124 124 126 128 128 131
331 331 329 328 326 321 317 313 313 316 315 318 320 309 294 295 295 284 279 278 281 297 43 79 54 33 33 31 25 21 12 4 3 6 8 7 6 18 59 55 19 19 48 46 314 278 111 106 181 134 115 42 326 131 109 103 129 129 119 112 107 142 181 122 96 90 94 105 115 114 107 110 113 113 116 118 117 116 114 116 120 121 121 123 125 129 132
329 327 327 327 323 317 316 314 312 313 312 315 318 303 280 287 292 263 263 284 284 273 357 82 69 53 47 40 30 22 12 4 8 12 12 26 37 43 64 83 59 48 50 39 352 347 77 118 116 122 114 65 1 62 85 94 111 106 94 82 85 140 157 103 86 91 96 112 126 121 109 110 112 113 116 117 117 118 116 116 120 121 122 124 126 127 128
326 325 327 326 321 319 320 315 312 312 311 314 316 298 269 274 277 248 257 294 304 274 125 93 79 63 54 45 33 25 22 21 26 34 44 59 70 80 90 86 85 80 61 61 38 360 65 84 66 64 91 91 69 68 87 99 101 101 96 71 54 151 129 98 107 130 137 146 151 140 123 121 121 118 120 120 121 123 123 122 124 125 127 129 128 126 126
323 323 324 324 322 322 319 315 313 310 309 317 320 301 267 263 260 245 254 274 287 305 17 79 85 67 50 38 31 33 35 35 38 52 62 65 70 75 62 40 56 63 35 41 65 79 77 75 70 77 89 81 73 92 107 112 110 109 99 62 30 88 118 121 154 153 141 150 154 141 121 125 128 125 125 125 126 129 128 128 129 129 130 131 130 129 130
321 321 322 323 324 321 315 312 310 308 315 325 323 297 265 251 244 242 247 249 265 286 297 90 85 65 41 28 29 40 46 46 49 56 61 68 73 74 66 56 54 49 41 45 57 70 71 59 52 73 60 351 328 136 135 128 110 97 86 71 65 69 63 38 86 112 125 140 143 128 123 129 131 129 129 131 133 132 129 129 130 130 131 132 132 132 132
320 319 319 318 318 316 312 308 305 310 322 329 319 288 247 204 203 234 251 253 274 287 286 96 85 72 53 30 28 42 51 52 54 55 57 60 62 64 68 69 64 58 66 71 65 75 92 77 59 71 45 360 342 159 146 119 105 94 86 107 102 77 50 42 84 112 124 127 122 121 125 126 127 129 130 131 132 131 129 130 131 131 131 132 131 130 131
319 316 310 310 311 309 305 303 306 315 325 325 306 282 208 119 117 241 266 265 271 277 279 98 103 109 84 41 22 33 48 55 59 60 59 58 58 58 58 57 56 53 63 78 74 66 78 80 84 110 81 9 345 177 139 117 114 115 111 109 99 81 76 86 99 111 117 118 119 121 121 123 128 130 127 128 131 131 130 130 130 130 130 130 129 129 131
319 311 303 302 303 300 300 303 310 317 319 302 279 284 314 348 293 269 271 275 272 267 267 110 120 121 87 76 53 30 27 45 68 67 56 52 59 66 64 63 64 55 51 75 84 65 65 73 78 96 83 357 330 123 124 115 119 125 122 113 103 98 102 104 106 112 118 124 127 126 125 129 134 131 129 132 134 132 130 129 129 129 129 128 127 129 131
313 304 298 297 295 293 296 302 309 313 308 288 266 257 277 316 315 279 258 265 272 270 280 86 133 119 73 107 105 32 353 355 96 81 52 40 53 78 79 76 78 61 33 42 78 80 88 101 94 89 73 21 16 74 85 93 117 127 127 119 112 111 113 115 119 125 130 135 135 130 129 132 133 131 132 132 132 131 130 129 129 130 130 129 130 132 134
308 298 294 292 288 287 294 304 311 311 298 284 252 206 272 326 328 287 220 238 272 268 272 354 142 119 115 186 132 35 341 324 93 84 58 29 13 69 86 79 73 62 34 34 87 105 101 98 107 109 95 78 76 81 88 110 125 129 126 120 120 124 126 127 130 132 135 135 129 123 125 129 130 131 130 129 129 131 131 132 134 135 134 134 136 137 139
300 294 289 283 282 289 300 307 306 287 261 241 94 58 328 324 309 248 201 222 275 270 142 194 199 132 147 174 122 53 340 342 57 67 68 53 19 44 84 83 69 62 37 360 109 104 86 60 94 126 111 97 81 87 122 136 135 132 130 130 134 137 134 132 135 135 133 131 126 125 130 132 131 131 130 131 134 136 136 138 141 140 139 139 140 141 141
298 290 279 275 285 297 302 297 282 257 253 36 41 335 308 316 296 234 203 215 245 261 85 216 202 135 101 111 100 71 285 182 91 80 102 99 60 42 88 101 85 73 59 62 99 98 82 315 283 118 109 94 70 90 129 143 139 136 137 138 141 140 135 134 138 136 131 129 129 131 134 133 131 132 134 136 139 142 143 145 146 142 141 141 141 141 140
292 275 270 278 288 290 278 229 103 357 330 336 334 296 266 230 225 230 216 218 226 234 262 275 150 87 27 73 106 151 248 187 118 105 110 109 88 54 75 98 104 114 108 88 84 86 70 16 56 99 96 83 82 101 125 140 140 139 142 142 141 138 132 133 135 132 128 130 131 133 135 135 135 138 141 143 146 147 146 146 145 142 141 143 142 141 141
285 265 276 287 283 266 213 140 9 334 323 319 308 255 208 211 222 207 193 206 204 204 252 295 69 104 135 113 111 114 292 213 136 125 106 111 118 113 94 91 105 175 128 98 89 85 78 75 87 98 95 95 106 116 128 136 137 139 141 141 140 138 136 139 140 136 133 135 138 139 142 143 143 146 147 146 146 145 144 143 143 142 143 143 142 141 143
261 253 266 267 265 289 20 355 327 321 317 295 262 226 187 206 225 196 180 227 200 173 230 271 100 115 191 130 114 95 337 298 176 144 125 103 74 144 152 130 152 202 143 117 130 217 126 101 108 115 111 111 117 124 131 134 134 135 136 135 138 139 139 142 145 141 139 142 147 148 150 149 147 147 147 144 143 144 144 144 143 143 143 141 141 142 144
308 277 263 256 311 357 348 333 321 311 282 226 225 231 204 214 223 198 204 222 197 131 330 346 90 76 312 259 124 114 30 321 327 96 105 95 25 306 114 105 129 208 141 115 124 224 151 124 127 131 129 130 131 133 136 136 134 135 135 135 140 143 144 145 147 145 144 146 148 149 149 146 143 143 143 143 145 145 143 143 144 143 140 139 140 142 141
355 332 294 301 326 331 322 311 299 273 241 210 194 228 229 219 212 219 225 219 184 129 181 230 151 145 198 280 108 114 106 330 329 46 96 95 10 306 96 101 146 247 101 100 132 189 145 135 134 125 124 134 139 141 142 139 137 138 138 138 141 145 148 150 150 149 148 148 146 145 146 145 145 144 144 144 144 142 141 143 143 140 139 141 142 142 140
328 311 300 300 304 304 294 270 237 220 235 230 197 210 220 205 197 217 224 227 177 147 170 216 150 117 97 43 52 81 85 329 290 279 110 101 21 320 98 120 197 113 92 105 186 175 133 130 128 121 126 140 144 145 146 144 142 143 143 144 147 151 154 156 152 147 147 146 143 144 147 146 144 143 143 142 140 139 141 142 140 140 143 146 145 142 140
320 302 302 297 283 265 249 236 205 178 239 231 190 187 209 211 215 219 209 202 221 187 158 141 126 118 111 94 59 76 83 236 278 315 77 100 125 284 102 97 76 86 102 169 208 156 131 138 136 131 137 147 150 150 149 147 146 147 147 151 154 156 156 154 149 145 145 146 144 145 147 145 142 142 142 140 139 139 140 141 142 144 147 148 146 143 142
281 264 269 260 237 224 234 234 191 172 231 223 196 195 205 206 217 225 202 181 190 185 160 168 185 173 159 183 174 104 127 199 245 42 84 119 146 60 84 88 84 99 154 202 167 109 99 107 121 131 141 149 152 153 152 149 150 151 151 154 157 157 153 151 149 147 147 147 147 147 147 144 143 143 142 141 142 142 141 142 144 145 146 146 145 145 145
243 222 213 210 220 233 222 200 188 203 221 218 210 212 207 200 208 217 196 164 173 179 172 182 191 168 144 150 188 170 176 178 127 95 135 153 80 51 60 90 115 180 207 165 130 121 124 124 126 136 147 152 152 153 153 153 155 156 154 156 158 157 154 152 152 152 150 149 150 150 148 146 146 145 145 146 147 146 144 145 146 148 148 148 148 148 151
246 230 208 201 224 237 219 205 202 208 212 212 214 218 219 212 207 200 165 153 180 184 174 179 183 163 149 154 177 192 173 128 104 95 295 50 82 63 38 57 169 236 209 147 138 139 142 143 144 148 151 152 153 153 153 155 158 159 159 160 160 158 156 156 156 155 153 152 151 150 149 150 150 149 148 149 150 149 147 149 151 152 153 152 151 153 157
256 252 222 205 212 218 215 216 215 210 214 222 221 221 224 218 188 143 141 189 197 180 170 178 178 151 146 167 196 180 155 115 95 75 340 37 94 93 359 260 215 162 144 155 155 132 129 138 147 150 151 152 154 155 156 158 161 162 161 161 161 159 158 159 159 157 155 155 154 152 152 153 152 151 151 153 153 151 151 153 157 158 157 155 155 157 163
266 248 221 214 215 207 205 217 225 219 217 226 228 223 222 219 190 164 162 190 198 173 168 174 167 145 153 187 211 162 133 117 104 92 44 73 109 125 213 226 188 173 185 180 132 120 128 140 146 149 151 153 155 157 159 161 163 164 164 165 166 163 161 161 162 160 159 159 158 156 156 157 155 155 156 157 155 154 156 159 162 162 161 159 159 162 168
277 264 234 231 239 222 209 213 223 220 213 217 219 210 212 221 210 175 151 166 191 183 176 177 179 171 170 177 178 160 152 146 138 139 155 161 169 184 192 170 161 181 210 210 88 104 123 137 143 148 153 155 156 158 160 160 161 163 165 166 167 165 163 164 163 161 161 163 162 159 160 161 161 161 162 160 158 159 162 164 165 167 168 168 167 168 173
248 256 240 226 232 230 212 207 215 219 210 204 203 203 212 217 203 160 150 181 191 174 168 183 194 184 170 170 176 178 173 160 150 158 174 188 195 188 177 178 181 178 165 128 97 110 126 137 144 151 155 157 158 159 159 159 160 164 165 166 166 165 164 164 163 162 163 166 164 162 163 166 167 168 168 166 163 163 165 168 171 174 176 176 176 174 177
220 238 238 227 231 234 214 206 217 224 211 198 194 200 214 217 196 166 170 189 182 167 175 191 186 166 169 186 187 173 156 159 174 187 189 189 183 177 182 193 196 147 117 105 100 114 129 141 150 155 157 159 161 161 160 160 162 164 164 163 163 164 164 163 163 164 166 166 165 166 169 172 173 172 172 171 169 168 169 174 180 182 182 182 184 182 182
216 222 227 226 233 238 222 209 216 226 222 209 197 195 207 212 190 164 171 189 189 184 188 189 175 169 183 191 179 153 153 174 197 207 198 176 179 205 207 187 122 109 112 113 117 124 135 146 155 158 158 161 162 160 160 161 163 165 165 164 164 164 165 164 165 167 168 168 169 171 174 176 176 174 174 178 180 179 176 179 186 189 188 187 189 188 187